[[{"header":{"parameterUnit":"m.s-1","parameterCategory":1,"la1":30.2991,"la2":30.254,"lo1":-89.0895,"lo2":-89.0444,"dy":0.0017,"dx":0.0017,"nx":28,"ny":28,"refTime":"2024-10-13T21:00:00:Z","depth":0,"parameterNumber":2,"parameterNumberName":"U-component_of_WINDS"},"data":[0,0,0,0,0,0,0,0,0,0,0,0,0,0,0,0,0,0,0,0,0,0,0,0,0,0,0,0,0,0,0,0,0,0,0,0,0,0,0,0,0,0,0,0,0,0,0,0,0,0,0,0,0,0,0,0,0,0,1.4028,1.4029,0,1.4124,1.4125,1.4127,1.4144,1.4144,1.4143,1.4142,1.4244,1.4247,1.4251,0,0,0,0,0,0,0,0,0,0,0,0,0,1.3862,1.3865,1.4028,1.4029,1.403,1.4124,1.4125,1.4127,1.4145,1.4144,1.4143,1.4142,1.4243,1.4247,1.4251,0,0,0,0,0,0,0,0,0,0,0,0,0,1.3944,1.3866,1.4028,1.405,1.4053,1.4124,1.4126,1.4127,1.4145,1.4144,1.4142,1.4141,1.4242,1.4247,1.4252,1.4307,0,0,1.4267,1.427,0,0,0,0,0,0,0,0,1.3939,1.395,1.4046,1.4049,1.4052,1.4121,1.4104,1.4188,1.4145,1.411,1.4142,1.4141,1.4204,1.4212,1.4233,1.4312,1.4316,1.4268,1.4271,1.4273,1.4275,0,0,0,0,0,0,0,1.3933,1.3946,1.4066,1.4047,1.4051,1.4057,1.4067,1.412,1.4163,1.4113,1.4115,1.4126,1.4206,1.4228,1.4236,1.4318,1.4268,1.4272,1.4276,1.4278,1.4447,1.4448,0,0,0,0,0,0,1.3923,1.3941,1.4063,1.4069,1.3992,1.4061,1.4072,1.41,1.4162,1.417,1.4127,1.4126,1.422,1.423,1.4239,1.4308,1.4273,1.4278,1.4281,1.4446,1.4447,1.4449,0,0,0,0,0,0,1.392,1.3934,1.4059,1.4005,1.4022,1.4065,1.4096,1.4103,1.4125,1.4172,1.418,1.4141,1.4219,1.4232,1.429,1.4312,1.428,1.4285,1.4444,1.4446,1.4448,1.4447,0,0,0,0,0,0,1.3915,1.3933,1.3953,1.4006,1.4025,1.4107,1.4098,1.4106,1.4134,1.4134,1.4188,1.4196,1.4219,1.4282,1.4295,1.4319,1.4289,1.4442,1.4445,1.4447,1.4445,1.4448,1.4451,0,0,0,0,0,1.3909,1.395,1.3954,1.3969,1.4051,1.4108,1.4119,1.4144,1.4135,1.4157,1.4187,1.4195,1.4308,1.4288,1.4303,1.4328,1.4441,1.4444,1.4447,1.4443,1.4448,1.4451,0,0,0,0,0,0,1.39,1.3957,1.3963,1.4022,1.406,1.4111,1.4139,1.4148,1.419,1.4189,1.4219,1.4231,1.4288,1.4314,1.4291,1.4385,1.4374,1.438,1.4366,1.437,1.4373,1.4366,1.4293,0,0,0,0,0,1.3905,1.3946,1.3994,1.4041,1.406,1.4096,1.4122,1.4138,1.4179,1.4196,1.423,1.4271,1.4316,1.4344,1.4388,1.4449,1.4461,1.4474,1.4477,1.4479,1.4484,1.4518,1.4524,1.4459,1.4459,1.4459,0,0,1.3916,1.3952,1.3976,1.404,1.4072,1.4114,1.411,1.4155,1.4187,1.4203,1.4259,1.4286,1.4333,1.4393,1.4421,1.4416,1.4505,1.4483,1.4485,1.4489,1.4522,1.4528,1.4533,1.4461,1.4461,1.4461,0,0,1.3957,1.3988,1.4031,1.4062,1.4109,1.4133,1.4143,1.4194,1.4212,1.4268,1.4281,1.432,1.4397,1.443,1.4456,1.4509,1.4518,1.4523,1.454,1.4573,1.4578,1.4582,1.4601,1.4608,1.4528,1.4528,1.4528,0,1.3964,1.4027,1.4052,1.4096,1.4124,1.414,1.4184,1.4213,1.4273,1.4292,1.4286,1.4382,1.4415,1.4482,1.4495,1.4516,1.4529,1.4517,1.4575,1.458,1.4585,1.4603,1.461,1.4528,1.4528,1.4528,1.4528,0,1.4034,1.4078,1.4107,1.4163,1.4194,1.4238,1.427,1.4299,1.4312,1.4337,1.4395,1.4435,1.4487,1.4504,1.4518,1.4573,1.4569,1.4569,1.4558,1.4591,1.4608,1.4615,1.4529,1.4529,1.4528,1.4528,0,0,1.4072,1.4141,1.4151,1.4176,1.423,1.4264,1.4309,1.4359,1.4383,1.4424,1.4462,1.4526,1.4526,1.4557,1.4574,1.4603,1.4642,1.4599,1.4601,1.4605,1.4705,1.4705,1.4712,1.4648,1.4649,1.465,1.4701,0,1.4119,1.4198,1.4222,1.4289,1.433,1.4345,1.4384,1.4421,1.4446,1.4485,1.4512,1.4557,1.4553,1.4572,1.4601,1.4631,1.4662,1.4628,1.4684,1.4686,1.4671,1.4722,1.4722,1.4768,1.4708,1.4709,1.471,0,1.4185,1.4225,1.4296,1.4343,1.4361,1.4396,1.4443,1.448,1.4523,1.4539,1.4572,1.4587,1.4635,1.4622,1.4689,1.4664,1.4689,1.4707,1.471,1.4716,1.47,1.4729,1.4783,1.479,1.4722,1.4721,1.472,0,1.4205,1.4277,1.4329,1.435,1.4407,1.4431,1.4456,1.4498,1.4526,1.4568,1.4587,1.4634,1.466,1.4696,1.4724,1.4711,1.4788,1.4777,1.4803,1.4802,1.4818,1.4817,1.4877,1.4835,1.4834,1.4834,1.4834,0,1.4255,1.4298,1.4339,1.437,1.4419,1.4446,1.4493,1.4519,1.4556,1.4593,1.461,1.4645,1.468,1.4719,1.4742,1.4793,1.4805,1.4819,1.4825,1.4818,1.4816,1.4834,1.4832,1.4836,1.4836,1.4835,1.4835,0,1.4286,1.4315,1.4372,1.4421,1.4435,1.4468,1.451,1.4542,1.4567,1.4614,1.4627,1.4666,1.4714,1.4745,1.4806,1.4821,1.4877,1.4882,1.4862,1.4865,1.4889,1.4886,1.4962,1.4974,1.4924,1.4924,1.4925,0,1.4315,1.4348,1.4401,1.4426,1.4451,1.4493,1.4521,1.455,1.4579,1.463,1.4655,1.4704,1.4744,1.482,1.4854,1.4901,1.4907,1.493,1.4914,1.4906,1.4907,1.4904,1.4908,1.4933,1.4933,1.4934,1.4934,0,1.4365,1.4378,1.4418,1.4463,1.4497,1.4534,1.4571,1.4592,1.4626,1.4659,1.4707,1.4738,1.48,1.4848,1.4898,1.4924,1.4935,1.4939,1.4947,1.494,1.4927,1.4934,1.4869,1.4937,1.4937,1.4936,1.4936,1.4936,1.4396,1.4426,1.4467,1.4511,1.4542,1.4577,1.4608,1.4637,1.4677,1.4729,1.4744,1.4794,1.4836,1.4904,1.4932,1.4972,1.4969,1.4982,1.4985,1.4987,1.4987,1.4921,1.4981,1.4981,1.4981,1.4981,1.4981,0,1.4446,1.4473,1.4514,1.4565,1.46,1.4606,1.4647,1.4676,1.472,1.4758,1.4797,1.4852,1.4899,1.4937,1.4985,1.501,1.5016,1.5022,1.502,1.5026,1.4987,1.4974,1.5016,1.5016,1.5016,1.5016,1.5016,1.5016,1.4476,1.4527,1.4545,1.4611,1.4638,1.4687,1.471,1.4742,1.4772,1.4833,1.4871,1.4895,1.4933,1.4984,1.5027,1.5038,1.5054,1.5059,1.507,1.5033,1.5029,1.5025,1.5014,1.5062,1.5062,1.5105,1.5106,1.5106]},{"header":{"parameterUnit":"m.s-1","parameterCategory":1,"la1":30.2991,"la2":30.254,"lo1":-89.0895,"lo2":-89.0444,"dy":0.0017,"dx":0.0017,"nx":28,"ny":28,"refTime":"2024-10-13T21:00:00:Z","depth":0,"parameterNumber":3,"parameterNumberName":"V-component_of_WINDS"},"data":[0,0,0,0,0,0,0,0,0,0,0,0,0,0,0,0,0,0,0,0,0,0,0,0,0,0,0,0,0,0,0,0,0,0,0,0,0,0,0,0,0,0,0,0,0,0,0,0,0,0,0,0,0,0,0,0,0,0,2.598,2.598,0,2.5947,2.5947,2.5947,2.5966,2.5967,2.5968,2.5969,2.5929,2.5927,2.5925,0,0,0,0,0,0,0,0,0,0,0,0,0,2.6054,2.6052,2.5981,2.598,2.598,2.5947,2.5947,2.5946,2.5966,2.5967,2.5968,2.5969,2.5929,2.5927,2.5924,0,0,0,0,0,0,0,0,0,0,0,0,0,2.6021,2.6052,2.5981,2.5986,2.5986,2.5947,2.5947,2.5946,2.5966,2.5967,2.5969,2.597,2.593,2.5927,2.5924,2.5877,0,0,2.5915,2.5914,0,0,0,0,0,0,0,0,2.6023,2.6019,2.5985,2.5985,2.5985,2.5962,2.5958,2.5923,2.5965,2.5973,2.5969,2.5971,2.5938,2.5935,2.5925,2.5875,2.5873,2.5915,2.5913,2.5912,2.5911,0,0,0,0,0,0,0,2.6025,2.602,2.5967,2.5985,2.5985,2.5987,2.5984,2.5951,2.5948,2.5973,2.5974,2.597,2.5938,2.5928,2.5924,2.5873,2.5915,2.5912,2.591,2.5909,2.5779,2.5777,0,0,0,0,0,0,2.6028,2.6022,2.5968,2.5966,2.6008,2.5985,2.5981,2.5968,2.5948,2.5947,2.5969,2.5971,2.5932,2.5928,2.5923,2.5864,2.5912,2.5909,2.5907,2.578,2.5778,2.5776,0,0,0,0,0,0,2.603,2.6023,2.597,2.5994,2.5988,2.5982,2.5967,2.5967,2.5956,2.5946,2.5944,2.5959,2.5933,2.5927,2.5888,2.5863,2.5908,2.5905,2.5782,2.578,2.5777,2.5747,0,0,0,0,0,0,2.6032,2.6024,2.6007,2.5994,2.5986,2.5937,2.5966,2.5965,2.5952,2.5954,2.5936,2.5934,2.5934,2.5892,2.5885,2.5859,2.5903,2.5785,2.5781,2.5778,2.575,2.5743,2.5738,0,0,0,0,0,2.6034,2.5999,2.6007,2.6,2.5966,2.5936,2.5931,2.5933,2.595,2.5932,2.5925,2.5935,2.5867,2.5888,2.588,2.5853,2.5786,2.5782,2.5778,2.5752,2.5745,2.5738,0,0,0,0,0,0,2.6008,2.5998,2.6005,2.5966,2.5952,2.5939,2.5917,2.5925,2.5905,2.5908,2.5909,2.5905,2.5863,2.5855,2.5878,2.5805,2.5829,2.5823,2.5812,2.5804,2.5798,2.58,2.59,0,0,0,0,0,2.5998,2.5976,2.5968,2.5933,2.5926,2.5923,2.591,2.5912,2.5897,2.589,2.5881,2.5863,2.5838,2.5821,2.5797,2.5749,2.5743,2.5727,2.5721,2.5716,2.571,2.5681,2.5672,2.5764,2.5764,2.5764,0,0,2.5976,2.5968,2.5954,2.5928,2.5917,2.5892,2.5917,2.589,2.5871,2.5886,2.5848,2.584,2.5821,2.5776,2.5756,2.5767,2.5684,2.5711,2.5707,2.5704,2.5676,2.5667,2.5659,2.5761,2.5762,2.5762,0,0,2.5923,2.5916,2.5886,2.5875,2.5859,2.5857,2.5849,2.5836,2.5831,2.5794,2.5804,2.5779,2.5737,2.5722,2.5708,2.5648,2.5655,2.5641,2.5608,2.5579,2.5572,2.5566,2.5541,2.5533,2.5635,2.5635,2.5635,0,2.5897,2.5862,2.5868,2.584,2.5827,2.5841,2.5808,2.5797,2.5773,2.5762,2.5776,2.5721,2.571,2.566,2.5646,2.5636,2.5624,2.5642,2.5573,2.5567,2.5561,2.5537,2.5528,2.5633,2.5634,2.5634,2.5634,0,2.583,2.5805,2.5782,2.576,2.5744,2.5714,2.5712,2.5696,2.57,2.5695,2.5655,2.5641,2.5614,2.5603,2.5606,2.5553,2.556,2.5574,2.5597,2.555,2.5527,2.5519,2.5631,2.5631,2.5632,2.5632,0,0,2.5758,2.574,2.5731,2.5721,2.5704,2.5683,2.5652,2.5627,2.5611,2.5594,2.5566,2.5529,2.5541,2.5526,2.5527,2.5503,2.5452,2.5519,2.5518,2.5504,2.5388,2.5376,2.5366,2.5458,2.5456,2.5455,2.5389,0,2.5702,2.565,2.5654,2.5603,2.5578,2.5591,2.5564,2.5549,2.5544,2.552,2.5513,2.5486,2.5506,2.5496,2.5472,2.5463,2.5428,2.5468,2.5427,2.5426,2.5429,2.5355,2.5342,2.528,2.538,2.5379,2.5378,0,2.5629,2.5611,2.5558,2.5544,2.5533,2.5509,2.5485,2.5463,2.5445,2.5443,2.5426,2.5431,2.5396,2.5423,2.5373,2.54,2.5384,2.5376,2.5374,2.5368,2.5397,2.5343,2.5261,2.5251,2.5365,2.5366,2.5367,0,2.5578,2.5541,2.5504,2.5495,2.5477,2.5459,2.5451,2.5435,2.5419,2.5397,2.5386,2.536,2.5345,2.5323,2.532,2.534,2.5268,2.5296,2.5262,2.5262,2.5244,2.5245,2.5155,2.5239,2.5239,2.5239,2.524,0,2.5513,2.548,2.5481,2.5457,2.5419,2.5423,2.5384,2.5377,2.5363,2.5336,2.5346,2.532,2.5319,2.5292,2.5289,2.5246,2.524,2.5234,2.5233,2.5232,2.5232,2.5219,2.5222,2.5237,2.5237,2.5238,2.5238,0,2.5449,2.5449,2.5409,2.5396,2.5392,2.5364,2.5351,2.5328,2.5324,2.529,2.5282,2.5274,2.5243,2.5238,2.5201,2.5199,2.5146,2.5151,2.5152,2.5152,2.5118,2.512,2.5014,2.4999,2.5095,2.5094,2.5094,0,2.5406,2.5381,2.5366,2.535,2.534,2.5315,2.5298,2.5301,2.5283,2.526,2.5238,2.5208,2.5184,2.5132,2.5121,2.5091,2.5094,2.5059,2.5089,2.5087,2.5089,2.5089,2.5085,2.5052,2.5051,2.505,2.5049,0,2.5329,2.533,2.5308,2.5284,2.5265,2.5247,2.5229,2.5215,2.5214,2.5193,2.5162,2.5143,2.5105,2.5073,2.5044,2.5032,2.5038,2.504,2.503,2.5027,2.5027,2.5023,2.5133,2.5042,2.5043,2.5043,2.5044,2.5044,2.5272,2.5249,2.5234,2.5208,2.5196,2.5179,2.5155,2.5148,2.5123,2.5094,2.5096,2.506,2.5041,2.5002,2.4988,2.4958,2.4969,2.4956,2.4952,2.4948,2.4943,2.5035,2.4953,2.4954,2.4954,2.4954,2.4954,0,2.5193,2.5184,2.516,2.5136,2.5114,2.5126,2.5107,2.5087,2.5056,2.5038,2.5015,2.4977,2.4946,2.4933,2.4901,2.488,2.4882,2.4871,2.4871,2.4867,2.4936,2.4947,2.487,2.487,2.487,2.487,2.487,2.487,2.5149,2.511,2.5108,2.5062,2.5053,2.502,2.5007,2.499,2.4976,2.4934,2.4909,2.4902,2.4884,2.4852,2.4823,2.4819,2.4806,2.4793,2.479,2.4854,2.4863,2.4871,2.488,2.4791,2.479,2.4723,2.4723,2.4722]}]]